Retour au catalogue

THOR ABLESTAR DEB

ActifLEO
NORAD 325·DEBRIS·🇺🇸 United States

Lancé Jun 29, 1961 depuis Cape Canaveral Space Force Station

Loading…

Prochains Passages (prochaines 24 heures)

TLE

FraisSource: Space-Track

Époque: Sep 5, 2026, 11:15 UTC

1 00325U 61015DB  26248.46899372  .00000372  00000-0  19726-3 0  9993
2 00325  66.9120 257.7919 0059238 322.9987  36.7030 14.23237427344581

Suivez THOR ABLESTAR DEB en temps réel avec AllMySat

Download on the App Store